| time (UTC) | temp F | wind direction | speed knots | gust knots | rain 1hr in | rain 24hr in | rain mn in | humidity % | barometer mb |
| 20260905193504 | 55 | 319 | 13.9 | 18.2 | 0.00 | 0.00 | 0.00 | 90 | 1016.3 |
| 20260905193005 | 55 | 317 | 11.3 | 13.9 | 0.00 | 0.00 | 0.00 | 90 | 1016.4 |
| 20260905191505 | 55 | 318 | 8.7 | 11.3 | 0.00 | 0.00 | 0.00 | 90 | 1016.6 |
| 20260905191005 | 55 | 324 | 7.8 | 11.3 | 0.00 | 0.00 | 0.00 | 90 | 1016.5 |
| 20260905185505 | 55 | 335 | 7.8 | 11.3 | 0.00 | 0.00 | 0.00 | 91 | 1016.5 |
| 20260905184504 | 55 | 328 | 7.8 | 11.3 | 0.00 | 0.00 | 0.00 | 91 | 1016.3 |
| 20260905183005 | 54 | 344 | 6.1 | 10.4 | 0.00 | 0.00 | 0.00 | 91 | 1016.1 |
| 20260905182504 | 54 | 338 | 5.2 | 7.8 | 0.00 | 0.00 | 0.00 | 90 | 1016.1 |
| 20260905182005 | 54 | 336 | 5.2 | 8.7 | 0.00 | 0.00 | 0.00 | 90 | 1016.0 |
| 20260905181005 | 54 | 314 | 7.0 | 11.3 | 0.00 | 0.00 | 0.00 | 90 | 1015.9 |
| 20260905175505 | 54 | 334 | 6.1 | 10.4 | 0.00 | 0.00 | 0.00 | 90 | 1016.0 |
| 20260905174504 | 54 | 336 | 6.1 | 11.3 | 0.00 | 0.00 | 0.00 | 90 | 1016.1 |
| 20260905173504 | 53 | 319 | 8.7 | 12.2 | 0.00 | 0.00 | 0.00 | 90 | 1016.2 |
| 20260905172505 | 53 | 320 | 8.7 | 13.0 | 0.00 | 0.00 | 0.00 | 90 | 1016.1 |
| 20260905171504 | 53 | 312 | 10.4 | 13.0 | 0.00 | 0.00 | 0.00 | 90 | 1016.2 |
| 20260905171006 | 53 | 317 | 11.3 | 13.9 | 0.00 | 0.00 | 0.00 | 90 | 1015.9 |
| 20260905170504 | 53 | 316 | 10.4 | 13.0 | 0.00 | 0.00 | 0.00 | 90 | 1016.0 |
| 20260905165506 | 53 | 318 | 10.4 | 13.0 | 0.00 | 0.00 | 0.00 | 90 | 1015.9 |
| 20260905164006 | 53 | 314 | 8.7 | 13.0 | 0.00 | 0.00 | 0.00 | 90 | 1015.7 |
| 20260905163007 | 53 | 314 | 7.8 | 11.3 | 0.00 | 0.00 | 0.00 | 89 | 1015.6 |
| 20260905162506 | 53 | 312 | 7.8 | 11.3 | 0.00 | 0.00 | 0.00 | 89 | 1015.7 |
| 20260905161508 | 53 | 315 | 8.7 | 13.0 | 0.00 | 0.00 | 0.00 | 89 | 1015.6 |
| 20260905155007 | 53 | 312 | 4.3 | 7.0 | 0.00 | 0.00 | 0.00 | 89 | 1015.8 |
| 20260905154506 | 53 | 317 | 6.1 | 8.7 | 0.00 | 0.00 | 0.00 | 89 | 1015.7 |
| 20260905154008 | 53 | 320 | 5.2 | 8.7 | 0.00 | 0.00 | 0.00 | 89 | 1015.7 |
| 20260905153506 | 53 | 314 | 7.0 | 8.7 | 0.00 | 0.00 | 0.00 | 89 | 1015.7 |
| 20260905153007 | 53 | 317 | 8.7 | 11.3 | 0.00 | 0.00 | 0.00 | 89 | 1015.8 |
| 20260905152507 | 53 | 317 | 7.0 | 11.3 | 0.00 | 0.00 | 0.00 | 89 | 1015.8 |
| 20260905152006 | 53 | 314 | 9.6 | 13.0 | 0.00 | 0.00 | 0.00 | 89 | 1015.8 |
| 20260905151506 | 54 | 320 | 8.7 | 12.2 | 0.00 | 0.00 | 0.00 | 89 | 1015.9 |
| 20260905150506 | 54 | 315 | 8.7 | 13.9 | 0.00 | 0.00 | 0.00 | 90 | 1016.1 |
| 20260905150006 | 54 | 314 | 8.7 | 13.0 | 0.00 | 0.00 | 0.00 | 90 | 1016.0 |
| 20260905145507 | 54 | 318 | 10.4 | 13.0 | 0.00 | 0.00 | 0.00 | 90 | 1016.1 |
| 20260905144506 | 54 | 318 | 10.4 | 13.0 | 0.00 | 0.00 | 0.00 | 90 | 1016.2 |
| 20260905142508 | 53 | 308 | 10.4 | 13.0 | 0.00 | 0.00 | 0.00 | 90 | 1016.4 |
| 20260905134506 | 53 | 306 | 5.2 | 11.3 | 0.00 | 0.00 | 0.00 | 90 | 1017.2 |
| 20260905133506 | 53 | 296 | 5.2 | 13.9 | 0.00 | 0.00 | 0.00 | 90 | 1017.0 |
| 20260905133007 | 53 | 294 | 7.8 | 14.8 | 0.00 | 0.00 | 0.00 | 90 | 1017.1 |
| 20260905132506 | 53 | 283 | 8.7 | 17.4 | 0.00 | 0.00 | 0.00 | 90 | 1017.1 |
| 20260905132006 | 53 | 298 | 6.1 | 15.6 | 0.00 | 0.00 | 0.00 | 90 | 1017.1 |
| 20260905131006 | 53 | 298 | 6.1 | 11.3 | 0.00 | 0.00 | 0.00 | 89 | 1017.1 |
| 20260905130506 | 53 | 297 | 5.2 | 10.4 | 0.00 | 0.00 | 0.00 | 88 | 1017.3 |
| 20260905125006 | 53 | 288 | 5.2 | 12.2 | 0.00 | 0.00 | 0.00 | 88 | 1017.5 |
| 20260905123507 | 54 | 305 | 5.2 | 11.3 | 0.00 | 0.00 | 0.00 | 87 | 1017.3 |
| 20260905122007 | 54 | 268 | 4.3 | 10.4 | 0.00 | 0.00 | 0.00 | 87 | 1017.6 |
| 20260905121006 | 54 | 291 | 7.0 | 13.0 | 0.00 | 0.00 | 0.00 | 86 | 1017.6 |
| 20260905120506 | 54 | 294 | 6.1 | 12.2 | 0.00 | 0.00 | 0.00 | 86 | 1017.7 |
| 20260905120007 | 54 | 273 | 4.3 | 11.3 | 0.00 | 0.00 | 0.00 | 85 | 1017.8 |
| 20260905115006 | 54 | 270 | 6.1 | 13.0 | 0.00 | 0.00 | 0.00 | 85 | 1017.8 |
| 20260905114506 | 54 | 255 | 8.7 | 15.6 | 0.00 | 0.00 | 0.00 | 85 | 1017.9 |
| 20260905113006 | 54 | 273 | 6.1 | 11.3 | 0.00 | 0.00 | 0.00 | 85 | 1018.2 |
| 20260905112506 | 54 | 260 | 7.8 | 13.0 | 0.00 | 0.00 | 0.00 | 84 | 1017.9 |
| 20260905112007 | 54 | 253 | 8.7 | 13.9 | 0.00 | 0.00 | 0.00 | 84 | 1018.0 |
| 20260905111505 | 55 | 263 | 6.1 | 15.6 | 0.00 | 0.00 | 0.00 | 84 | 1018.1 |
| 20260905110506 | 54 | 258 | 10.4 | 15.6 | 0.00 | 0.00 | 0.00 | 85 | 1018.1 |
| 20260905110007 | 54 | 254 | 10.4 | 18.2 | 0.00 | 0.00 | 0.00 | 85 | 1018.2 |
| 20260905105006 | 53 | 250 | 10.4 | 17.4 | 0.00 | 0.00 | 0.00 | 86 | 1018.2 |
| 20260905104507 | 53 | 260 | 10.4 | 15.6 | 0.00 | 0.00 | 0.00 | 86 | 1018.3 |
| 20260905103506 | 53 | 286 | 5.2 | 11.3 | 0.00 | 0.00 | 0.00 | 86 | 1018.4 |
| 20260905103006 | 53 | 262 | 6.1 | 10.4 | 0.00 | 0.00 | 0.00 | 85 | 1018.5 |
| 20260905102507 | 53 | 259 | 6.1 | 12.2 | 0.00 | 0.00 | 0.00 | 85 | 1018.3 |
| 20260905102005 | 52 | 268 | 5.2 | 11.3 | 0.00 | 0.00 | 0.00 | 85 | 1018.1 |
| 20260905101506 | 52 | 262 | 6.1 | 11.3 | 0.00 | 0.00 | 0.00 | 84 | 1018.1 |
| 20260905101007 | 52 | 280 | 4.3 | 8.7 | 0.00 | 0.00 | 0.00 | 84 | 1018.1 |
| 20260905100506 | 53 | 299 | 5.2 | 11.3 | 0.00 | 0.00 | 0.00 | 84 | 1018.0 |
| 20260905095006 | 53 | 297 | 6.1 | 12.2 | 0.00 | 0.00 | 0.00 | 82 | 1018.1 |
| 20260905093507 | 53 | 297 | 4.3 | 12.2 | 0.00 | 0.00 | 0.00 | 81 | 1018.1 |
| 20260905093006 | 54 | 272 | 5.2 | 11.3 | 0.00 | 0.00 | 0.00 | 81 | 1018.1 |
| 20260905092506 | 54 | 259 | 7.8 | 13.0 | 0.00 | 0.00 | 0.00 | 80 | 1017.9 |
| 20260905091505 | 54 | 252 | 10.4 | 17.4 | 0.00 | 0.00 | 0.00 | 80 | 1018.1 |
| 20260905090006 | 54 | 253 | 12.2 | 18.2 | 0.00 | 0.00 | 0.00 | 80 | 1018.1 |
| 20260905085007 | 54 | 250 | 10.4 | 19.1 | 0.00 | 0.00 | 0.00 | 80 | 1018.3 |
| 20260905084007 | 54 | 274 | 13.9 | 22.6 | 0.00 | 0.00 | 0.00 | 81 | 1018.1 |
| 20260905080008 | 53 | 295 | 8.7 | 15.6 | 0.00 | 0.00 | 0.00 | 85 | 1017.6 |
| 20260905074006 | 52 | 298 | 8.7 | 18.2 | 0.00 | 0.00 | 0.00 | 84 | 1017.4 |
| 20260905073506 | 52 | 302 | 6.1 | 11.3 | 0.00 | 0.00 | 0.00 | 83 | 1017.3 |
| 20260905071507 | 52 | 268 | 4.3 | 11.3 | 0.00 | 0.00 | 0.00 | 81 | 1017.4 |
| 20260905070006 | 52 | 278 | 3.5 | 11.3 | 0.00 | 0.00 | 0.00 | 81 | 1017.2 |
| 20260905065507 | 52 | 297 | 6.1 | 13.0 | 0.00 | 0.00 | 0.00 | 81 | 1017.1 |
| 20260905065006 | 53 | 288 | 6.1 | 12.2 | 0.00 | 0.00 | 0.00 | 81 | 1017.0 |
| 20260905064005 | 53 | 301 | 5.2 | 11.3 | 0.00 | 0.00 | 0.00 | 79 | 1017.0 |
| 20260905063507 | 53 | 312 | 6.1 | 12.2 | 0.00 | 0.00 | 0.00 | 79 | 1017.1 |
| 20260905063005 | 53 | 312 | 7.8 | 11.3 | 0.00 | 0.00 | 0.00 | 79 | 1017.0 |
| 20260905060507 | 55 | 262 | 7.0 | 11.3 | 0.00 | 0.00 | 0.00 | 78 | 1017.5 |
| 20260905060006 | 55 | 268 | 6.1 | 13.0 | 0.00 | 0.00 | 0.00 | 78 | 1017.4 |
| 20260905054006 | 56 | 278 | 7.8 | 15.6 | 0.00 | 0.00 | 0.00 | 76 | 1017.6 |
| 20260905053507 | 57 | 282 | 5.2 | 13.0 | 0.00 | 0.00 | 0.00 | 75 | 1017.4 |
| 20260905051005 | 58 | 274 | 6.1 | 14.8 | 0.00 | 0.00 | 0.00 | 74 | 1017.5 |
| 20260905050507 | 58 | 257 | 7.8 | 13.9 | 0.00 | 0.00 | 0.00 | 74 | 1017.4 |
| 20260905045506 | 58 | 253 | 11.3 | 14.8 | 0.00 | 0.00 | 0.00 | 74 | 1017.2 |
| 20260905045007 | 59 | 258 | 10.4 | 15.6 | 0.00 | 0.00 | 0.00 | 73 | 1017.2 |
| 20260905044505 | 59 | 265 | 7.8 | 15.6 | 0.00 | 0.01 | 0.00 | 72 | 1017.4 |
| 20260905044006 | 59 | 275 | 7.8 | 17.4 | 0.00 | 0.02 | 0.00 | 72 | 1017.5 |
| 20260905042505 | 60 | 274 | 8.7 | 18.2 | 0.00 | 0.02 | 0.00 | 71 | 1017.7 |
| 20260905041006 | 60 | 259 | 7.8 | 15.6 | 0.00 | 0.02 | 0.00 | 71 | 1017.6 |
| 20260905035505 | 61 | 268 | 8.7 | 19.1 | 0.00 | 0.02 | 0.00 | 69 | 1017.5 |
| 20260905035007 | 61 | 282 | 8.7 | 15.6 | 0.00 | 0.02 | 0.00 | 68 | 1017.6 |
| 20260905034006 | 62 | 262 | 8.7 | 17.4 | 0.00 | 0.03 | 0.00 | 68 | 1017.9 |
| 20260905033007 | 62 | 247 | 9.6 | 17.4 | 0.00 | 0.03 | 0.00 | 69 | 1017.9 |
| 20260905032506 | 62 | 272 | 9.6 | 15.6 | 0.00 | 0.03 | 0.00 | 68 | 1017.8 |
| 20260905032006 | 62 | 260 | 10.4 | 18.2 | 0.00 | 0.03 | 0.00 | 66 | 1017.8 |
| 20260905031505 | 62 | 251 | 9.6 | 17.4 | 0.00 | 0.03 | 0.00 | 67 | 1018.0 |
| 20260905031007 | 63 | 249 | 8.7 | 17.4 | 0.00 | 0.03 | 0.00 | 67 | 1018.0 |
| 20260905030006 | 63 | 269 | 10.4 | 20.0 | 0.00 | 0.04 | 0.00 | 66 | 1017.9 |
| 20260905025506 | 63 | 281 | 7.8 | 17.4 | 0.00 | 0.04 | 0.00 | 65 | 1018.0 |
| 20260905023006 | 64 | 278 | 7.8 | 15.6 | 0.00 | 0.04 | 0.00 | 65 | 1018.2 |
| 20260905022006 | 64 | 272 | 12.2 | 20.0 | 0.00 | 0.04 | 0.00 | 67 | 1018.1 |
| 20260905021505 | 64 | 293 | 8.7 | 20.0 | 0.00 | 0.04 | 0.00 | 66 | 1018.0 |
| 20260905021006 | 64 | 264 | 11.3 | 17.4 | 0.00 | 0.04 | 0.00 | 67 | 1017.9 |
| 20260905015005 | 64 | 307 | 8.7 | 19.1 | 0.00 | 0.04 | 0.00 | 69 | 1018.0 |
| 20260905014505 | 64 | 268 | 7.8 | 18.2 | 0.00 | 0.05 | 0.00 | 69 | 1018.2 |
| 20260905014007 | 64 | 274 | 8.7 | 20.0 | 0.00 | 0.05 | 0.00 | 68 | 1018.2 |
| 20260905013005 | 64 | 295 | 8.7 | 15.6 | 0.00 | 0.06 | 0.00 | 68 | 1018.1 |
| 20260905012005 | 64 | 296 | 6.1 | 17.4 | 0.00 | 0.07 | 0.00 | 69 | 1018.3 |
| 20260905011505 | 64 | 247 | 10.4 | 17.4 | 0.00 | 0.07 | 0.00 | 70 | 1018.4 |
| 20260905010505 | 64 | 289 | 9.6 | 18.2 | 0.00 | 0.07 | 0.00 | 70 | 1018.5 |
| 20260905005507 | 64 | 280 | 7.8 | 17.4 | 0.00 | 0.07 | 0.00 | 70 | 1018.6 |
| 20260905002005 | 64 | 293 | 9.6 | 19.1 | 0.00 | 0.07 | 0.00 | 72 | 1019.1 |
| 20260905001006 | 64 | 289 | 7.0 | 18.2 | 0.00 | 0.07 | 0.00 | 70 | 1019.2 |
| 20260905000505 | 64 | 281 | 6.1 | 15.6 | 0.00 | 0.07 | 0.00 | 70 | 1019.2 |
| 20260904235005 | 64 | 290 | 8.7 | 17.4 | 0.00 | 0.07 | 0.00 | 71 | 1019.2 |
| 20260904234005 | 64 | 262 | 7.8 | 15.6 | 0.00 | 0.07 | 0.00 | 71 | 1019.3 |
| 20260904233506 | 64 | 299 | 9.6 | 15.6 | 0.00 | 0.07 | 0.00 | 71 | 1019.5 |
| 20260904232504 | 64 | 299 | 7.0 | 15.6 | 0.00 | 0.07 | 0.00 | 71 | 1019.5 |
| 20260904231005 | 63 | 301 | 7.8 | 18.2 | 0.00 | 0.07 | 0.00 | 71 | 1019.3 |
| 20260904225006 | 63 | 291 | 6.1 | 13.9 | 0.00 | 0.07 | 0.00 | 72 | 1019.5 |
| 20260904223505 | 62 | 280 | 6.1 | 13.9 | 0.00 | 0.07 | 0.00 | 72 | 1019.5 |
| 20260904223006 | 62 | 303 | 7.0 | 15.6 | 0.00 | 0.07 | 0.00 | 72 | 1019.7 |
| 20260904222504 | 62 | 268 | 6.1 | 13.0 | 0.00 | 0.07 | 0.00 | 72 | 1019.5 |
| 20260904222006 | 62 | 265 | 6.1 | 13.9 | 0.00 | 0.07 | 0.00 | 71 | 1019.5 |
| 20260904221506 | 62 | 274 | 5.2 | 13.0 | 0.00 | 0.07 | 0.00 | 73 | 1019.5 |
| 20260904220005 | 61 | 277 | 6.1 | 17.4 | 0.00 | 0.07 | 0.00 | 72 | 1019.5 |
| 20260904215506 | 61 | 245 | 11.3 | 15.6 | 0.00 | 0.07 | 0.00 | 75 | 1019.6 |
| 20260904214006 | 60 | 304 | 6.1 | 11.3 | 0.00 | 0.07 | 0.00 | 75 | 1019.4 |
| 20260904213504 | 60 | 276 | 6.1 | 13.0 | 0.00 | 0.07 | 0.00 | 74 | 1019.6 |
| 20260904213005 | 59 | 251 | 8.7 | 12.2 | 0.00 | 0.07 | 0.00 | 71 | 1019.7 |
| 20260904210505 | 59 | 253 | 8.7 | 15.6 | 0.00 | 0.07 | 0.00 | 75 | 1019.7 |
| 20260904204507 | 58 | 269 | 6.1 | 12.2 | 0.00 | 0.07 | 0.00 | 78 | 1019.7 |
| 20260904203505 | 57 | 241 | 7.0 | 15.6 | 0.00 | 0.07 | 0.00 | 77 | 1019.4 |
| 20260904202506 | 57 | 252 | 8.7 | 13.0 | 0.00 | 0.07 | 0.00 | 78 | 1019.3 |
| 20260904201506 | 56 | 254 | 6.1 | 12.2 | 0.00 | 0.07 | 0.00 | 80 | 1019.4 |
| 20260904201004 | 56 | 256 | 6.1 | 15.6 | 0.00 | 0.07 | 0.00 | 79 | 1019.3 |
| 20260904200505 | 55 | 254 | 7.8 | 13.9 | 0.00 | 0.07 | 0.00 | 80 | 1019.2 |
| 20260904200006 | 55 | 250 | 8.7 | 14.8 | 0.00 | 0.07 | 0.00 | 80 | 1019.0 |
| 20260904195505 | 54 | 247 | 10.4 | 15.6 | 0.00 | 0.07 | 0.00 | 80 | 1018.9 |
| 20260904195005 | 54 | 246 | 10.4 | 14.8 | 0.00 | 0.07 | 0.00 | 81 | 1018.8 |
| 20260904194505 | 54 | 248 | 8.7 | 13.0 | 0.00 | 0.07 | 0.00 | 81 | 1018.8 |